• In Czech Republic
  • List of Countries
  • For 7 days
  • Water Temperature
  • Satellite Maps
  • Weather Map
  • Weather Widgets
  • user-avatar
    Login

    Hourly Weather Snyatyn

    Today, 22 January, Monday

    Time Temperature Precipitation Wind Pressure Humidity
    00:00 -4°C° 0.6 mm 3 mps 736 mmHg 100%
    01:00 -4°C° 0.8 mm 3 mps 736 mmHg 100%
    02:00 -2°C° 0 mm 1 mps 737 mmHg 100%
    03:00 -4°C° 0.3 mm 2 mps 736 mmHg 100%
    04:00 -4°C° 0.7 mm 2 mps 737 mmHg 100%
    05:00 -4°C° 0.6 mm 2 mps 737 mmHg 100%
    06:00 -4°C° 0.7 mm 2 mps 737 mmHg 100%
    07:00 -5°C° 0.7 mm 3 mps 738 mmHg 100%
    08:00 -5°C° 0.7 mm 3 mps 738 mmHg 100%
    09:00 -6°C° 0.5 mm 3 mps 739 mmHg 100%
    10:00 -5°C° 0.5 mm 3 mps 739 mmHg 100%
    11:00 -4°C° 0.2 mm 2 mps 739 mmHg 99%
    12:00 -4°C° 0.2 mm 2 mps 740 mmHg 99%
    13:00 -3°C° 0.3 mm 2 mps 740 mmHg 99%
    14:00 -2°C° 0 mm 1 mps 740 mmHg 98%
    15:00 -2°C° 0 mm 2 mps 740 mmHg 99%
    16:00 -2°C° 0 mm 2 mps 741 mmHg 98%
    17:00 -3°C° 0 mm 2 mps 740 mmHg 100%
    18:00 -4°C° 0 mm 2 mps 741 mmHg 100%
    19:00 -5°C° 0 mm 2 mps 741 mmHg 100%
    20:00 -3°C° 0 mm 1 mps 741 mmHg 100%
    21:00 -4°C° 0 mm 1 mps 741 mmHg 100%
    22:00 -5°C° 0 mm 0 mps 741 mmHg 100%
    23:00 -6°C° 0 mm 1 mps 742 mmHg 100%

    Tomorrow, 23 January, Tuesday

    Time Temperature Precipitation Wind Pressure Humidity
    00:00 -6°C° 0 mm 1 mps 742 mmHg 100%
    01:00 -6°C° 0.1 mm 1 mps 742 mmHg 100%
    02:00 -6°C° 0 mm 1 mps 743 mmHg 100%
    03:00 -6°C° 0 mm 1 mps 743 mmHg 100%
    04:00 -8°C° 0 mm 2 mps 743 mmHg 100%
    05:00 -8°C° 0 mm 2 mps 743 mmHg 100%
    06:00 -10°C° 0 mm 3 mps 743 mmHg 100%
    07:00 -12°C° 0 mm 3 mps 744 mmHg 100%
    08:00 -12°C° 0 mm 2 mps 744 mmHg 100%
    09:00 -12°C° 0 mm 2 mps 745 mmHg 100%
    10:00 -10°C° 0 mm 2 mps 745 mmHg 100%
    11:00 -9°C° 0 mm 2 mps 746 mmHg 98%
    12:00 -9°C° 0 mm 3 mps 747 mmHg 96%
    13:00 -8°C° 0 mm 3 mps 747 mmHg 93%
    14:00 -7°C° 0 mm 3 mps 747 mmHg 92%
    15:00 -7°C° 0 mm 3 mps 748 mmHg 90%
    16:00 -8°C° 0 mm 3 mps 749 mmHg 96%
    17:00 -8°C° 0 mm 2 mps 749 mmHg 99%
    18:00 -10°C° 0 mm 3 mps 750 mmHg 100%
    19:00 -12°C° 0 mm 3 mps 750 mmHg 99%
    20:00 -12°C° 0 mm 2 mps 750 mmHg 97%
    21:00 -13°C° 0 mm 2 mps 751 mmHg 98%
    22:00 -13°C° 0 mm 2 mps 751 mmHg 100%
    23:00 -15°C° 0 mm 3 mps 751 mmHg 100%

    Day after tomorrow, 24 January, Wednesday

    Time Temperature Precipitation Wind Pressure Humidity
    00:00 -16°C° 0 mm 3 mps 751 mmHg 100%
    01:00 -17°C° 0 mm 3 mps 752 mmHg 100%
    02:00 -17°C° 0 mm 3 mps 752 mmHg 100%
    03:00 -18°C° 0 mm 3 mps 752 mmHg 100%
    04:00 -18°C° 0 mm 3 mps 752 mmHg 100%
    05:00 -18°C° 0 mm 3 mps 752 mmHg 100%
    06:00 -19°C° 0 mm 4 mps 752 mmHg 98%
    07:00 -19°C° 0 mm 4 mps 752 mmHg 95%
    08:00 -19°C° 0 mm 4 mps 752 mmHg 93%
    09:00 -18°C° 0 mm 4 mps 752 mmHg 91%
    10:00 -17°C° 0 mm 4 mps 753 mmHg 91%
    11:00 -15°C° 0 mm 3 mps 753 mmHg 94%
    12:00 -13°C° 0 mm 3 mps 753 mmHg 95%
    13:00 -10°C° 0 mm 3 mps 752 mmHg 96%
    14:00 -9°C° 0 mm 3 mps 752 mmHg 96%
    15:00 -8°C° 0 mm 3 mps 752 mmHg 96%
    16:00 -9°C° 0 mm 4 mps 752 mmHg 97%
    17:00 -9°C° 0 mm 3 mps 752 mmHg 97%
    18:00 -11°C° 0 mm 4 mps 752 mmHg 98%
    19:00 -12°C° 0 mm 3 mps 751 mmHg 98%
    20:00 -10°C° 0 mm 3 mps 751 mmHg 96%
    21:00 -9°C° 0 mm 3 mps 751 mmHg 94%
    22:00 -8°C° 0 mm 2 mps 751 mmHg 93%
    23:00 -7°C° 0 mm 2 mps 751 mmHg 90%

    25 January, Thursday

    Time Temperature Precipitation Wind Pressure Humidity
    00:00 -8°C° 0 mm 3 mps 751 mmHg 90%
    01:00 -8°C° 0 mm 2 mps 751 mmHg 88%
    02:00 -9°C° 0 mm 2 mps 751 mmHg 89%
    03:00 -12°C° 0 mm 3 mps 750 mmHg 91%
    04:00 -12°C° 0 mm 3 mps 750 mmHg 93%
    05:00 -13°C° 0 mm 3 mps 750 mmHg 93%
    06:00 -13°C° 0 mm 3 mps 750 mmHg 94%
    07:00 -13°C° 0 mm 3 mps 749 mmHg 95%
    08:00 -13°C° 0 mm 3 mps 749 mmHg 94%
    09:00 -13°C° 0 mm 3 mps 749 mmHg 94%
    10:00 -12°C° 0 mm 4 mps 749 mmHg 94%
    11:00 -10°C° 0 mm 4 mps 749 mmHg 93%
    12:00 -9°C° 0 mm 4 mps 749 mmHg 94%
    13:00 -7°C° 0 mm 4 mps 748 mmHg 95%
    14:00 -7°C° 0 mm 4 mps 748 mmHg 97%
    15:00 -5°C° 0 mm 4 mps 747 mmHg 95%
    16:00 -7°C° 0 mm 5 mps 747 mmHg 96%
    17:00 -10°C° 0 mm 5 mps 747 mmHg 98%
    18:00 -10°C° 0 mm 4 mps 747 mmHg 100%
    19:00 -10°C° 0 mm 3 mps 747 mmHg 100%
    20:00 -12°C° 0 mm 3 mps 746 mmHg 100%
    21:00 -13°C° 0 mm 3 mps 746 mmHg 100%
    22:00 -13°C° 0 mm 3 mps 746 mmHg 100%
    23:00 -14°C° 0 mm 3 mps 746 mmHg 100%

    26 January, Friday

    Time Temperature Precipitation Wind Pressure Humidity
    00:00 -14°C° 0 mm 3 mps 746 mmHg 100%
    01:00 -15°C° 0 mm 3 mps 746 mmHg 100%
    02:00 -15°C° 0 mm 3 mps 746 mmHg 100%
    03:00 -16°C° 0 mm 3 mps 746 mmHg 100%
    04:00 -15°C° 0 mm 2 mps 745 mmHg 100%
    05:00 -16°C° 0 mm 2 mps 745 mmHg 100%
    06:00 -17°C° 0 mm 3 mps 745 mmHg 100%
    07:00 -17°C° 0 mm 3 mps 745 mmHg 100%
    08:00 -18°C° 0 mm 3 mps 745 mmHg 100%
    09:00 -17°C° 0 mm 3 mps 745 mmHg 100%
    10:00 -16°C° 0 mm 3 mps 745 mmHg 100%
    11:00 -14°C° 0 mm 2 mps 745 mmHg 99%
    12:00 -13°C° 0 mm 3 mps 745 mmHg 98%
    13:00 -10°C° 0 mm 3 mps 745 mmHg 97%
    14:00 -8°C° 0 mm 3 mps 745 mmHg 96%

    27 January, Saturday

    Time Temperature Precipitation Wind Pressure Humidity
    Show more